Regional Weather Roundup
Issued by NWS

Home | Current Version | Previous Version | Text Only | Print | Product List | Glossary Off
Versions: 1 2 3 4 5 6 7 8 9 10 11 12 13 14 15 16 17 18 19 20 21 22 23 24 25 26 27 28 29 30 31 32 33 34 35 36 37 38 39 40 41 42 43 44 45 46 47 48 49 50

000
ASUS43 KIND 011609
RWRIN

WEATHER ROUNDUP FOR INDIANA
NATIONAL WEATHER SERVICE INDIANAPOLIS IN
1200 PM EDT TUE SEP 01 2015

NOTE: "FAIR" INDICATES FEW OR NO CLOUDS BELOW 12,000 FEET WITH NO
SIGNIFICANT WEATHER AND/OR OBSTRUCTIONS TO VISIBILITY.

* - STATION DOES NOT REPORT WEATHER SUCH AS PRECIPITATION OR FOG.

+ - STATION NOT QUALITY CONTROLLED BY THE NATIONAL WEATHER SERVICE.
    USE DATA WITH CAUTION...ESPECIALLY DEWPOINT AND RELATIVE
    HUMIDITY OBSERVATIONS.

INZ001>003-010>013-019-020-011700-
NORTHWEST INDIANA

CITY           SKY/WX    TMP DP  RH WIND       PRES   REMARKS
GARY /AIRPORT/ MOSUNNY   82  70  65 CALM      30.07F
KNOX *+        SUNNY     81  70  69 S8        30.09S
LA PORTE +     MOSUNNY   81  78  90 S7        30.11R
MICHIGAN CITY+ MOSUNNY   81  70  69 S7        30.09R
MONTICELLO +   MOSUNNY   78  71  79 SW15      30.12S
RENSSELAER +   PTSUNNY   77  73  88 SW9       30.13R
VALPARAISO     PTSUNNY   81  72  74 MISG      30.10R

$$

LMZ046-743>745-011700-
SOUTHERN LAKE MICHIGAN

STATION/POSITION TIME  TEMP    WIND        PRES    WAVE
                       AIR SEA DIR/SP/G            HT
                 (UTC) (F)     (DEG/KT/KT) (MB)    (FT)
BURNS HARBOR     1500   79     180/  5/  8 1018.6S
MICHIGAN CITY    1500   77     130/  8/  9   N/A
5NW MICH CITY    1600   76 73  200/  6/  6   N/A     0

$$

INZ004-005-014>016-021>024-011700-
NORTH CENTRAL INDIANA

CITY           SKY/WX    TMP DP  RH WIND       PRES   REMARKS
GOSHEN         MOSUNNY   83  73  72 SW7       30.10S
LOGANSPORT +   CLOUDY    79  64  61 W13       30.14R
PERU/GRISSOM   SUNNY     83  70  65 SW15      30.12R
ROCHESTER +    PTSUNNY   86  72  62 S9        30.12S
SOUTH BEND     SUNNY     81  72  74 S9        30.10S
WARSAW +       SUNNY     81  72  74 SW6       30.12R

$$

INZ006>009-017-018-025>027-011700-
NORTHEAST INDIANA

CITY           SKY/WX    TMP DP  RH WIND       PRES   REMARKS
ANGOLA *+      MOSUNNY   84  72  65 CALM      30.11S
AUBURN +       MOSUNNY   82  68  61 SW3       30.13S
FORT WAYNE     MOSUNNY   82  72  71 SW8       30.13S
HUNTINGTON +   PTSUNNY   83  67  58 S7        30.12S

$$

INZ028-029-035-036-043>045-051>053-011700-
WEST CENTRAL INDIANA

CITY           SKY/WX    TMP DP  RH WIND       PRES   REMARKS
CRAWFORDSVL +  PTSUNNY   76  65  70 SW8       30.15S
GREENCASTLE +  PTSUNNY   79  64  61 SW3       30.16S
LAFAYETTE      MOSUNNY   80  67  64 W13G18    30.13R
TERRE HAUTE    CLOUDY    73  64  73 SW7       30.15S

$$

INZ030>032-037>040-046>048-054>057-064-065-011700-
CENTRAL INDIANA

CITY           SKY/WX    TMP DP  RH WIND       PRES   REMARKS
ANDERSON       PTSUNNY   82  64  54 W6        30.16S
COLUMBUS       SUNNY     81  68  65 SW7       30.16R
FRANKFORT +    MOSUNNY  N/A N/A N/A SW8       30.16S
GREENWOOD *+   MOSUNNY   82  66  57 SW7       30.16S
INDIANAPOLIS   PTSUNNY   83  68  60 SW8       30.15R
-EAGLE CREEK   MOSUNNY   82  69  64 SW7       30.14S
KOKOMO *+      PTSUNNY   84  70  61 SW15      30.13S
MARION +       SUNNY     81  62  52 W10       30.14S
MT COMFORT *+  SUNNY     82  61  47 SW7       30.16R
SHELBYVILLE    MOSUNNY   84  69  60 SW7       30.15R
ZIONSVILLE +   MOSUNNY   82  67  62 SW10      30.15R

$$

INZ033-034-041-042-049-050-058-059-011700-
EAST CENTRAL INDIANA

CITY           SKY/WX    TMP DP  RH WIND       PRES   REMARKS
MUNCIE         PTSUNNY   81  68  64 SW9       30.14F

$$

INZ060-061-067>069-081>083-085>088-011700-
SOUTHWEST INDIANA

CITY           SKY/WX    TMP DP  RH WIND       PRES   REMARKS
EVANSVILLE     PTSUNNY   84  67  56 VRB3      30.15S
HUNTINGBURG *+ SUNNY     84  68  58 SW7       30.16S
WASHINGTON +   PTSUNNY   79  63  58 CALM      30.15F

$$

INZ062-063-066-070>080-084-089>092-011700-
SOUTH CENTRAL AND SOUTHEAST INDIANA

CITY           SKY/WX    TMP DP  RH WIND       PRES   REMARKS
BLOOMINGTON    PTSUNNY   76  68  76 W8        30.17R
MADISON *+     SUNNY     82  63  51 SW3       30.18S
NORTH VERNON + MOSUNNY   82  64  54 CALM      30.17R
SEYMOUR +      MOSUNNY   86  66  51 W9        30.15S

$$



USA.gov is the U.S. government's official web portal to all federal, state and local government web resources and services.